Phillips, WI

5:45 AM CST on February 13, 2016 (GMT -0600)
Price County

Weather History for KPBH - December, 2012

Change the Weather History Date:

Monday, December 3, 2012

  Actual Average Record
Temperature  
Mean Temperature 47 °F -  
Max Temperature 57 °F 31 °F 57 °F (2012)
Min Temperature 37 °F 18 °F -7 °F (2002)
Degree Days  
Heating Degree Days 18    
Moisture  
Dew Point 45 °F    
Average Humidity 92    
Maximum Humidity 100    
Minimum Humidity 76    
Precipitation  
Precipitation 0.00 in - - ()
Sea Level Pressure  
Sea Level Pressure 29.72 in    
Wind  
Wind Speed 10 mph (SSW)    
Max Wind Speed 17 mph    
Max Gust Speed 24 mph    
Visibility 5 miles    
Events Rain    
Averages and records for this station are not official NWS values.
T = Trace of Precipitation, MM = Missing Value Source: NWS Daily Summary

Daily Weather History Graph

Daily Weather History Graph

Search for Another Location

Airport or City:

Trip Planner

Search our weather history database for the weather conditions in past years. The results will help you decide how hot, cold, wet, or windy it might be!

Date:

Astronomy

Dec. 03, 2012 Rise Set
Actual Time 7:24 AM CST 4:18 PM CST
Civil Twilight 6:51 AM CST 4:52 PM CST
Nautical Twilight 6:13 AM CST 5:29 PM CST
Astronomical Twilight 5:37 AM CST 6:05 PM CST
Moon 9:13 PM CST (12/3) 10:40 AM CST (12/3)
Length of Visible Light 10h 00m
Length of Day
8h 53m
Waning Gibbous, 78% of the Moon is Illuminated
Dec 3
Waning Gibbous
Dec 6
Last Quarter
Dec 13
New
Dec 19
First Quarter
Dec 28
Full

Hourly Weather History & Observations

Time (CST) Temp. Windchill Dew Point Humidity Pressure Visibility Wind Dir Wind Speed Gust Speed Precip Events Conditions
12:15 AM 37.4 °F 32.1 °F 37.4 °F 100% 29.92 in 4.0 mi SSE 6.9 mph - N/A   Overcast
12:35 AM 39.2 °F 33.6 °F 37.4 °F 93% 29.92 in 4.0 mi SSE 8.1 mph - N/A   Overcast
12:55 AM 39.2 °F 33.0 °F 37.4 °F 93% 29.91 in 4.0 mi SE 9.2 mph - N/A   Overcast
1:15 AM 39.2 °F 33.6 °F 39.2 °F 100% 29.90 in 3.0 mi SSE 8.1 mph - N/A   Overcast
1:35 AM 39.2 °F 33.0 °F 39.2 °F 100% 29.89 in 1.8 mi SSE 9.2 mph - N/A   Overcast
1:55 AM 41.0 °F 35.2 °F 39.2 °F 93% 29.90 in 1.5 mi SSE 9.2 mph - N/A   Overcast
2:15 AM 41.0 °F 34.7 °F 39.2 °F 93% 29.89 in 2.0 mi SSE 10.4 mph - N/A   Overcast
2:35 AM 42.8 °F 37.0 °F 41.0 °F 93% 29.88 in 2.0 mi SSE 10.4 mph - N/A   Overcast
2:55 AM 42.8 °F 37.5 °F 41.0 °F 93% 29.87 in 2.5 mi SSE 9.2 mph - N/A   Overcast
3:15 AM 42.8 °F 37.5 °F 42.8 °F 100% 29.86 in 3.0 mi SSE 9.2 mph - N/A   Overcast
3:35 AM 44.6 °F 38.8 °F 42.8 °F 93% 29.85 in 3.0 mi SSE 11.5 mph 16.1 mph N/A   Overcast
3:55 AM 44.6 °F 38.1 °F 42.8 °F 93% 29.84 in 2.5 mi South 13.8 mph 17.3 mph N/A   Overcast
4:15 AM 44.6 °F 39.2 °F 42.8 °F 93% 29.83 in 3.0 mi South 10.4 mph 16.1 mph N/A   Overcast
4:35 AM 44.6 °F 37.4 °F 42.8 °F 93% 29.82 in 4.0 mi South 16.1 mph 23.0 mph N/A   Overcast
4:55 AM 44.6 °F 38.1 °F 42.8 °F 93% 29.82 in 4.0 mi SSE 13.8 mph 18.4 mph N/A   Overcast
5:15 AM 44.6 °F 39.2 °F 42.8 °F 93% 29.81 in 4.0 mi SSE 10.4 mph 17.3 mph N/A   Overcast
5:35 AM 44.6 °F 39.2 °F 42.8 °F 93% 29.80 in 1.8 mi SSE 10.4 mph - N/A   Overcast
5:55 AM 44.6 °F 39.7 °F 44.6 °F 100% 29.79 in 1.5 mi SSE 9.2 mph 17.3 mph N/A   Overcast
6:15 AM 46.4 °F 41.1 °F 44.6 °F 93% 29.78 in 2.0 mi SSE 11.5 mph - N/A   Overcast
6:35 AM 46.4 °F 40.4 °F 44.6 °F 93% 29.77 in 2.5 mi South 13.8 mph 18.4 mph N/A   Overcast
6:55 AM 46.4 °F 40.1 °F 44.6 °F 93% 29.77 in 2.5 mi SSE 15.0 mph 19.6 mph N/A   Overcast
7:15 AM 46.4 °F 41.5 °F 44.6 °F 93% 29.76 in 2.0 mi SSE 10.4 mph 17.3 mph N/A   Overcast
7:35 AM 46.4 °F 41.5 °F 44.6 °F 93% 29.73 in 1.8 mi SSE 10.4 mph 16.1 mph N/A   Overcast
7:55 AM 46.4 °F 42.4 °F 46.4 °F 100% 29.72 in 1.5 mi SSE 8.1 mph - N/A   Overcast
8:15 AM 46.4 °F 41.9 °F 46.4 °F 100% 29.72 in 2.0 mi SSE 9.2 mph - N/A   Overcast
8:35 AM 46.4 °F 41.5 °F 46.4 °F 100% 29.72 in 1.5 mi SSE 10.4 mph 17.3 mph N/A   Overcast
9:15 AM 48.2 °F - 46.4 °F 93% 29.69 in 0.8 mi SSE 10.4 mph - N/A   Overcast
9:35 AM 48.2 °F - 46.4 °F 93% 29.68 in 0.8 mi SSE 12.7 mph 19.6 mph N/A   Overcast
9:55 AM 50.0 °F - 48.2 °F 94% 29.67 in 1.5 mi SSE 12.7 mph 18.4 mph N/A   Overcast
10:15 AM 50.0 °F - 48.2 °F 94% 29.67 in 1.5 mi SSE 12.7 mph 19.6 mph N/A   Overcast
10:35 AM 50.0 °F - 48.2 °F 94% 29.65 in 1.0 mi SSE 12.7 mph 17.3 mph N/A   Overcast
10:55 AM 50.0 °F - 48.2 °F 94% 29.64 in 0.8 mi SSE 13.8 mph 23.0 mph N/A   Overcast
11:15 AM 50.0 °F - 48.2 °F 94% 29.63 in 1.0 mi South 10.4 mph 17.3 mph N/A   Overcast
11:35 AM 51.8 °F - 51.8 °F 100% 29.61 in 1.2 mi South 12.7 mph 18.4 mph N/A   Overcast
11:55 AM 51.8 °F - 51.8 °F 100% 29.60 in 1.2 mi South 11.5 mph 20.7 mph N/A   Overcast
12:15 PM 51.8 °F - 51.8 °F 100% 29.59 in 1.2 mi South 13.8 mph 19.6 mph N/A   Overcast
12:35 PM 53.6 °F - 51.8 °F 94% 29.59 in 1.2 mi South 16.1 mph 21.9 mph N/A   Overcast
1:15 PM 53.6 °F - 51.8 °F 94% 29.56 in 1.5 mi South 11.5 mph - N/A   Light Drizzle
1:35 PM 53.6 °F - 53.6 °F 100% 29.56 in 2.0 mi South 15.0 mph 20.7 mph N/A   Light Drizzle
1:55 PM 53.6 °F - 53.6 °F 100% 29.55 in 3.0 mi South 15.0 mph 19.6 mph N/A   Overcast
2:15 PM 55.4 °F - 53.6 °F 94% 29.55 in 4.0 mi South 13.8 mph 18.4 mph N/A   Overcast
2:35 PM 55.4 °F - 53.6 °F 94% 29.55 in 3.0 mi SSW 15.0 mph 18.4 mph N/A Rain Rain
2:55 PM 55.4 °F - 55.4 °F 100% 29.55 in 3.0 mi SSW 10.4 mph 23.0 mph N/A   Drizzle
3:15 PM 55.4 °F - 55.4 °F 100% 29.55 in 3.0 mi SSW 12.7 mph 20.7 mph N/A Rain Light Rain
3:35 PM 55.4 °F - 55.4 °F 100% 29.56 in 4.0 mi SSW 12.7 mph 18.4 mph N/A   Overcast
3:55 PM 57.2 °F - 55.4 °F 94% 29.56 in 5.0 mi SSW 17.3 mph 21.9 mph N/A   Overcast
4:15 PM 55.4 °F - 55.4 °F 100% 29.57 in 5.0 mi WSW 17.3 mph 24.2 mph N/A   Drizzle
4:35 PM 55.4 °F - 53.6 °F 94% 29.60 in 7.0 mi WSW 16.1 mph 23.0 mph N/A   Overcast
4:55 PM 55.4 °F - 51.8 °F 88% 29.61 in 7.0 mi WSW 13.8 mph 23.0 mph N/A   Overcast
5:15 PM 53.6 °F - 50.0 °F 88% 29.62 in 7.0 mi West 4.6 mph 19.6 mph N/A   Scattered Clouds
5:35 PM 51.8 °F - 48.2 °F 88% 29.63 in 7.0 mi WSW 9.2 mph 16.1 mph N/A   Scattered Clouds
5:55 PM 51.8 °F - 48.2 °F 88% 29.65 in 7.0 mi West 9.2 mph 17.3 mph N/A   Overcast
6:15 PM 51.8 °F - 48.2 °F 88% 29.66 in 7.0 mi West 5.8 mph - N/A   Overcast
6:35 PM 51.8 °F - 46.4 °F 82% 29.68 in 10.0 mi West 5.8 mph - N/A   Overcast
6:55 PM 50.0 °F - 46.4 °F 87% 29.69 in 10.0 mi West 5.8 mph - N/A   Scattered Clouds
7:15 PM 48.2 °F - 44.6 °F 87% 29.71 in 10.0 mi West 6.9 mph - N/A   Scattered Clouds
7:35 PM 48.2 °F - 44.6 °F 87% 29.72 in 10.0 mi West 4.6 mph - N/A   Scattered Clouds
7:55 PM 48.2 °F - 42.8 °F 82% 29.73 in 10.0 mi West 5.8 mph 18.4 mph N/A   Mostly Cloudy
8:15 PM 46.4 °F 42.4 °F 42.8 °F 87% 29.75 in 10.0 mi West 8.1 mph - N/A   Clear
8:35 PM 46.4 °F 42.4 °F 41.0 °F 81% 29.76 in 10.0 mi West 8.1 mph - N/A   Clear
8:55 PM 44.6 °F 39.7 °F 39.2 °F 81% 29.76 in 10.0 mi West 9.2 mph - N/A   Clear
9:15 PM 44.6 °F 40.2 °F 39.2 °F 81% 29.77 in 10.0 mi West 8.1 mph - N/A   Clear
9:35 PM 44.6 °F 40.2 °F 39.2 °F 81% 29.76 in 10.0 mi WSW 8.1 mph - N/A   Clear
9:55 PM 42.8 °F 37.5 °F 37.4 °F 81% 29.77 in 10.0 mi WSW 9.2 mph - N/A   Clear
10:15 PM 42.8 °F 37.5 °F 37.4 °F 81% 29.78 in 10.0 mi WSW 9.2 mph - N/A   Clear
10:35 PM 42.8 °F 38.6 °F 37.4 °F 81% 29.79 in 10.0 mi WSW 6.9 mph - N/A   Clear
10:55 PM 42.8 °F 39.3 °F 35.6 °F 76% 29.79 in 10.0 mi WSW 5.8 mph - N/A   Clear
11:15 PM 42.8 °F 38.6 °F 35.6 °F 76% 29.79 in 10.0 mi WSW 6.9 mph - N/A   Clear
11:35 PM 41.0 °F 36.4 °F 35.6 °F 81% 29.80 in 10.0 mi WSW 6.9 mph - N/A   Clear
11:55 PM 41.0 °F 36.4 °F 35.6 °F 81% 29.80 in 10.0 mi WSW 6.9 mph - N/A   Clear